Weather History for KAUH - February, 2014

Change the Weather History Date:

Tuesday, February 18, 2014

  Actual Average Record
Temperature  
Mean Temperature 48 °F -  
Max Temperature 67 °F 40 °F 69 °F (1970)
Min Temperature 29 °F 18 °F -11 °F (1993)
Degree Days  
Heating Degree Days 17    
Moisture  
Dew Point 22 °F    
Average Humidity 43    
Maximum Humidity 65    
Minimum Humidity 15    
Precipitation  
Precipitation 0.00 in - - ()
Sea Level Pressure  
Sea Level Pressure 29.77 in    
Wind  
Wind Speed 14 mph (West)    
Max Wind Speed 30 mph    
Max Gust Speed 38 mph    
Visibility 10 miles    
Events      
Averages and records for this station are not official NWS values.
T = Trace of Precipitation, MM = Missing Value Source: NWS Daily Summary

Daily Weather History Graph

Daily Weather History Graph

Search for Another Location

Airport or City:

Trip Planner

Search our weather history database for the weather conditions in past years. The results will help you decide how hot, cold, wet, or windy it might be!

Date:

Astronomy

Feb. 18, 2014 Rise Set
Actual Time 7:22 AM CST 6:10 PM CST
Civil Twilight 6:54 AM CST 6:38 PM CST
Nautical Twilight 6:22 AM CST 7:10 PM CST
Astronomical Twilight 5:50 AM CST 7:42 PM CST
Moon 10:07 PM CST (2/18) 8:53 AM CST (2/18)
Length of Visible Light 11h 44m
Length of Day
10h 48m
Waning Gibbous, 87% of the Moon is Illuminated
Feb 18
Waning Gibbous
Feb 22
Last Quarter
Mar 1
New
Mar 8
First Quarter
Mar 16
Full

Hourly Weather History & Observations

Time (CST) Temp. Windchill Dew Point Humidity Pressure Visibility Wind Dir Wind Speed Gust Speed Precip Events Conditions
12:15 AM 40.6 °F 32.3 °F 19.9 °F 44% 29.79 in 10.0 mi SSW 16.1 mph - N/A   Clear
12:35 AM 40.6 °F 33.0 °F 20.1 °F 44% 29.78 in 10.0 mi SW 13.8 mph - N/A   Clear
12:55 AM 41.2 °F 33.7 °F 20.3 °F 43% 29.77 in 10.0 mi SW 13.8 mph - N/A   Clear
1:15 AM 41.2 °F 33.7 °F 20.5 °F 44% 29.76 in 10.0 mi SW 13.8 mph - N/A   Clear
1:35 AM 41.0 °F 33.5 °F 20.5 °F 44% 29.75 in 10.0 mi SW 13.8 mph - N/A   Clear
1:55 AM 39.4 °F 32.3 °F 21.0 °F 48% 29.74 in 10.0 mi SW 11.5 mph - N/A   Clear
2:15 AM 37.9 °F 30.9 °F 21.2 °F 51% 29.73 in 10.0 mi SW 10.4 mph - N/A   Clear
2:35 AM 36.0 °F 28.0 °F 21.2 °F 55% 29.72 in 10.0 mi SW 11.5 mph - N/A   Clear
2:55 AM 35.8 °F 29.4 °F 21.0 °F 55% 29.72 in 10.0 mi SW 8.1 mph - N/A   Clear
3:15 AM 35.8 °F 27.8 °F 21.6 °F 56% 29.70 in 10.0 mi SW 11.5 mph - N/A   Clear
3:35 AM 39.0 °F 30.6 °F 22.1 °F 51% 29.68 in 10.0 mi SW 15.0 mph - N/A   Clear
3:55 AM 39.4 °F 31.1 °F 21.9 °F 50% 29.67 in 10.0 mi SW 15.0 mph - N/A   Clear
4:15 AM 39.0 °F 30.6 °F 22.1 °F 51% 29.67 in 10.0 mi SW 15.0 mph - N/A   Clear
4:35 AM 39.2 °F 30.2 °F 22.1 °F 50% 29.66 in 10.0 mi SW 17.3 mph - N/A   Clear
4:55 AM 38.7 °F 30.1 °F 22.1 °F 51% 29.66 in 10.0 mi SW 15.0 mph - N/A   Clear
5:15 AM 37.8 °F 29.4 °F 21.9 °F 53% 29.66 in 10.0 mi SW 13.8 mph - N/A   Clear
5:35 AM 37.4 °F 28.9 °F 21.7 °F 53% 29.66 in 10.0 mi SW 13.8 mph - N/A   Clear
5:55 AM 36.5 °F 28.2 °F 21.7 °F 55% 29.66 in 10.0 mi SW 12.7 mph - N/A   Clear
6:15 AM 35.1 °F 27.4 °F 21.4 °F 57% 29.66 in 10.0 mi SW 10.4 mph - N/A   Clear
6:35 AM 35.2 °F 26.2 °F 21.4 °F 57% 29.66 in 10.0 mi SW 13.8 mph - N/A   Clear
6:55 AM 35.6 °F 26.6 °F 21.2 °F 56% 29.66 in 10.0 mi SW 13.8 mph - N/A   Clear
7:15 AM 35.2 °F 27.1 °F 21.2 °F 57% 29.66 in 10.0 mi SW 11.5 mph - N/A   Clear
7:35 AM 35.4 °F 27.3 °F 21.6 °F 57% 29.66 in 10.0 mi SW 11.5 mph - N/A   Clear
7:55 AM 36.5 °F 27.8 °F 21.6 °F 55% 29.67 in 10.0 mi SW 13.8 mph - N/A   Clear
8:15 AM 36.7 °F 30.5 °F 21.7 °F 55% 29.66 in 10.0 mi SW 8.1 mph - N/A   Clear
8:35 AM 37.8 °F 32.5 °F 21.7 °F 53% 29.67 in 10.0 mi SSW 6.9 mph - N/A   Clear
8:55 AM 37.2 °F 31.9 °F 22.3 °F 55% 29.67 in 10.0 mi SW 6.9 mph - N/A   Clear
9:15 AM 42.6 °F 36.3 °F 23.0 °F 46% 29.67 in 10.0 mi SW 11.5 mph - N/A   Clear
9:35 AM 45.9 °F 40.0 °F 23.0 °F 41% 29.67 in 10.0 mi SW 12.7 mph - N/A   Clear
9:55 AM 48.6 °F - 23.0 °F 37% 29.68 in 10.0 mi SW 11.5 mph - N/A   Clear
10:15 AM 51.4 °F - 22.6 °F 32% 29.68 in 10.0 mi SW 11.5 mph - N/A   Clear
10:35 AM 53.8 °F - 23.0 °F 30% 29.68 in 10.0 mi SW 9.2 mph - N/A   Clear
10:55 AM 55.6 °F - 23.0 °F 28% 29.68 in 10.0 mi WSW 9.2 mph - N/A   Clear
11:15 AM 57.7 °F - 23.4 °F 27% 29.69 in 10.0 mi SW 9.2 mph - N/A   Clear
11:35 AM 59.5 °F - 23.9 °F 25% 29.70 in 10.0 mi SW 9.2 mph - N/A   Clear
11:55 AM 62.1 °F - 24.3 °F 24% 29.68 in 10.0 mi WSW 11.5 mph - N/A   Clear
12:15 PM 64.0 °F - 24.6 °F 22% 29.68 in 10.0 mi SW 12.7 mph - N/A   Clear
12:35 PM 64.8 °F - 24.6 °F 22% 29.68 in 10.0 mi WSW 12.7 mph 16.1 mph N/A   Scattered Clouds
12:55 PM 65.7 °F - 21.4 °F 18% 29.67 in 10.0 mi West 15.0 mph - N/A   Scattered Clouds
1:15 PM 67.3 °F - 18.5 °F 15% 29.68 in 10.0 mi WNW 25.3 mph 32.2 mph N/A   Clear
1:35 PM 66.0 °F - 18.9 °F 16% 29.67 in 10.0 mi WNW 24.2 mph 32.2 mph N/A   Clear
1:55 PM 64.4 °F - 18.9 °F 17% 29.68 in 10.0 mi WNW 25.3 mph 38.0 mph N/A   Clear
2:15 PM 66.6 °F - 19.2 °F 16% 29.69 in 10.0 mi NW 28.8 mph 35.7 mph N/A   Clear
2:35 PM 65.7 °F - 19.2 °F 17% 29.70 in 10.0 mi NW 28.8 mph 38.0 mph N/A   Clear
2:55 PM 65.3 °F - 20.1 °F 18% 29.72 in 10.0 mi NW 29.9 mph 38.0 mph N/A   Clear
3:15 PM 64.4 °F - 21.6 °F 19% 29.73 in 10.0 mi NNW 27.6 mph 36.8 mph N/A   Clear
3:35 PM 63.7 °F - 22.3 °F 21% 29.74 in 10.0 mi NNW 21.9 mph 34.5 mph N/A   Clear
3:55 PM 62.6 °F - 22.5 °F 22% 29.77 in 10.0 mi NNW 26.5 mph 38.0 mph N/A   Clear
4:15 PM 60.3 °F - 25.0 °F 26% 29.79 in 10.0 mi NNW 28.8 mph 33.4 mph N/A   Clear
4:35 PM 59.0 °F - 26.6 °F 29% 29.81 in 10.0 mi NNW 26.5 mph 36.8 mph N/A   Clear
4:55 PM 56.7 °F - 27.3 °F 33% 29.82 in 10.0 mi NNW 18.4 mph - N/A   Clear
5:15 PM 55.6 °F - 27.1 °F 34% 29.84 in 10.0 mi NNW 20.7 mph 26.5 mph N/A   Clear
5:35 PM 54.5 °F - 26.6 °F 34% 29.85 in 10.0 mi NNW 13.8 mph - N/A   Clear
5:55 PM 52.3 °F - 26.1 °F 36% 29.86 in 10.0 mi NNW 12.7 mph - N/A   Clear
6:15 PM 47.8 °F - 26.1 °F 43% 29.87 in 10.0 mi North 9.2 mph - N/A   Clear
6:35 PM 44.2 °F 39.2 °F 25.2 °F 47% 29.88 in 10.0 mi NNW 9.2 mph - N/A   Clear
6:55 PM 43.3 °F 38.1 °F 25.0 °F 48% 29.90 in 10.0 mi North 9.2 mph - N/A   Clear
7:15 PM 39.2 °F 33.6 °F 23.7 °F 54% 29.91 in 10.0 mi NNW 8.1 mph - N/A   Clear
7:35 PM 39.0 °F 32.8 °F 23.9 °F 55% 29.92 in 10.0 mi NNW 9.2 mph - N/A   Scattered Clouds
7:55 PM 39.0 °F 32.3 °F 23.9 °F 55% 29.93 in 10.0 mi NNW 10.4 mph - N/A   Scattered Clouds
8:15 PM 38.8 °F 32.1 °F 22.3 °F 51% 29.93 in 10.0 mi NNW 10.4 mph - N/A   Clear
8:35 PM 37.2 °F 30.0 °F 21.9 °F 54% 29.94 in 10.0 mi NNW 10.4 mph - N/A   Clear
8:55 PM 35.8 °F 28.3 °F 21.2 °F 55% 29.96 in 10.0 mi NW 10.4 mph - N/A   Clear
9:15 PM 34.5 °F 26.7 °F 20.3 °F 56% 29.96 in 10.0 mi NNW 10.4 mph - N/A   Clear
9:35 PM 32.4 °F 23.5 °F 19.6 °F 59% 29.97 in 10.0 mi NNW 11.5 mph - N/A   Clear
9:55 PM 33.1 °F 24.9 °F 20.1 °F 59% 29.98 in 10.0 mi NNW 10.4 mph - N/A   Clear
10:15 PM 32.0 °F 24.2 °F 19.2 °F 59% 29.98 in 10.0 mi NNW 9.2 mph - N/A   Clear
10:35 PM 30.6 °F 24.7 °F 19.0 °F 62% 29.98 in 10.0 mi NW 5.8 mph - N/A   Clear
10:55 PM 29.8 °F 23.9 °F 18.9 °F 64% 29.99 in 10.0 mi West 5.8 mph - N/A   Clear
11:15 PM 29.3 °F 23.2 °F 18.9 °F 65% 29.98 in 10.0 mi West 5.8 mph - N/A   Clear
11:55 PM 30.7 °F 26.0 °F 19.2 °F 62% 29.98 in 10.0 mi West 4.6 mph - N/A   Clear
11:56 PM 30.2 °F 25.4 °F 19.4 °F 64% 29.98 in 10.0 mi West 4.6 mph - N/A   Clear